Simultaneous Nadir Overpasses (SNOs) Predictions

Prediction of SNOs between GOES-17 and NOAA-20 Satellite Orbit:

Table of predicted SNOs for the next 14.0 days since TLE Epoch: 3/26/2022
Index Date Time (GOES-17) GOES-17 Lat,Lon NOAA-20 Lat,Lon Distance(km) Time Diff (sec)
1 03/26/2022 10:31:10 -0.04,-137.20 -0.14,-136.82 42.98 80
2 03/28/2022 22:37:02 0.02,-137.21 -0.08,-137.59 43.82 80
3 03/29/2022 22:15:39 0.02,-137.21 0.96,-133.06 472.86 80
4 03/31/2022 10:40:08 -0.02,-137.21 0.21,-138.34 127.70 80
5 04/01/2022 10:18:44 -0.02,-137.21 -0.76,-133.80 388.69 80
6 04/02/2022 22:43:21 0.02,-137.22 -0.42,-139.10 215.41 80
7 04/03/2022 22:24:38 0.02,-137.22 0.61,-134.58 300.70 80
8 04/05/2022 10:46:27 -0.02,-137.21 0.55,-139.85 300.88 80
9 04/06/2022 10:25:02 -0.02,-137.20 -0.43,-135.31 214.72 80
10 04/07/2022 22:47:00 0.02,-137.19 -0.76,-140.62 390.73 80
11 04/08/2022 22:30:56 0.01,-137.18 0.28,-136.09 124.59 80
